TimeEST,TemperatureF,Dew PointF,Humidity,Sea Level PressureIn,VisibilityMPH,Wind Direction,Wind SpeedMPH,Gust SpeedMPH,PrecipitationIn,Events,Conditions,WindDirDegrees,DateUTC
12:53 AM,34.0,28.9,82,30.00,10.0,Calm,Calm,-,N/A,,Clear,0,2012-11-06 05:53:00
1:53 AM,32.0,28.0,85,29.99,10.0,Calm,Calm,-,N/A,,Scattered Clouds,0,2012-11-06 06:53:00
2:53 AM,32.0,28.0,85,29.98,10.0,Calm,Calm,-,N/A,,Scattered Clouds,0,2012-11-06 07:53:00
3:53 AM,32.0,28.0,85,29.98,10.0,Calm,Calm,-,N/A,,Scattered Clouds,0,2012-11-06 08:53:00
4:53 AM,33.1,28.0,82,29.99,10.0,Calm,Calm,-,N/A,,Scattered Clouds,0,2012-11-06 09:53:00
5:53 AM,34.0,28.0,79,29.99,10.0,Calm,Calm,-,N/A,,Mostly Cloudy,0,2012-11-06 10:53:00
6:53 AM,34.0,28.0,79,30.01,10.0,Calm,Calm,-,N/A,,Mostly Cloudy,0,2012-11-06 11:53:00
7:53 AM,36.0,28.9,76,30.03,10.0,Calm,Calm,-,N/A,,Overcast,0,2012-11-06 12:53:00
8:53 AM,39.0,33.1,79,30.03,10.0,Calm,Calm,-,N/A,,Overcast,0,2012-11-06 13:53:00
9:53 AM,42.1,32.0,67,30.04,10.0,Calm,Calm,-,N/A,,Overcast,0,2012-11-06 14:53:00
10:53 AM,43.0,34.0,71,30.04,10.0,Calm,Calm,-,0.00,Rain,Light Rain,0,2012-11-06 15:53:00
11:53 AM,44.1,35.1,71,30.02,10.0,SE,5.8,-,0.00,Rain,Light Rain,140,2012-11-06 16:53:00
12:53 PM,43.0,36.0,76,30.00,10.0,ESE,3.5,-,0.00,,Overcast,120,2012-11-06 17:53:00
1:53 PM,43.0,37.0,80,29.99,10.0,SSE,3.5,-,0.00,Rain,Light Rain,150,2012-11-06 18:53:00
2:53 PM,43.0,37.0,80,29.97,10.0,Calm,Calm,-,0.00,,Overcast,0,2012-11-06 19:53:00
3:53 PM,43.0,36.0,76,29.95,10.0,SSW,3.5,-,0.00,,Overcast,200,2012-11-06 20:53:00
4:53 PM,43.0,35.1,74,29.95,10.0,Calm,Calm,-,N/A,,Overcast,0,2012-11-06 21:53:00
5:53 PM,43.0,36.0,76,29.95,10.0,Calm,Calm,-,N/A,,Overcast,0,2012-11-06 22:53:00
6:53 PM,43.0,36.0,76,29.96,10.0,Calm,Calm,-,N/A,,Overcast,0,2012-11-06 23:53:00
7:53 PM,42.1,37.0,82,29.94,10.0,Calm,Calm,-,N/A,,Overcast,0,2012-11-07 00:53:00
8:53 PM,42.1,36.0,79,29.94,10.0,West,3.5,-,N/A,,Overcast,280,2012-11-07 01:53:00
9:53 PM,42.1,37.0,82,29.94,10.0,Calm,Calm,-,N/A,,Overcast,0,2012-11-07 02:53:00
10:53 PM,41.0,37.0,86,29.93,10.0,Calm,Calm,-,0.00,,Light Drizzle,0,2012-11-07 03:53:00
11:53 PM,41.0,37.0,86,29.91,10.0,Calm,Calm,-,0.00,,Overcast,0,2012-11-07 04:53:00